Погода в Лимасоле

Кипр     34°40′24″N   33°01′33″E
темп.,
°C
ветер,
м/с
пор.,
м/с
влажн.,
%
обл.,
%
осадки,
мм/ч
давл.,
гПа
погр.,
м
23 апреля, пт
пт2300:00+14всв22650 0.0 101917
03:00+13ссв11570 0.0 101911
06:00+12ссв01461 0.0 101911
09:00+19ююв11340 0.0 1020405
12:00+23ююв332694 0.0 1019914
15:00+23ююз433483 0.0 1018857
18:00+22юз333836 0.0 1016392
21:00+18св2249100 0.0 101712
24 апреля, сб
сб2400:00+17ссв22496 0.0 101612
03:00+17с22420 0.0 101413
06:00+16с22350 0.0 101411
09:00+25вюв12143 0.0 1013429
12:00+27ю32180 0.0 1013955
15:00+28юз44225 0.0 10111102
18:00+26юз33235 0.0 1010445
21:00+21с22310 0.0 101011
25 апреля, вс
вс2500:00+20с22275 0.0 101011
03:00+20ссв2223100 0.0 100911
06:00+19св112798 0.0 100811
09:00+24вюв223046 0.0 1009300
12:00+27ю322360 0.0 1008678
15:00+28юз441832 0.0 1007718
18:00+25юз332011 0.0 1006404
21:00+19ссз11345 0.0 100611
26 апреля, пн
пн2600:00+18зюз22320 0.0 100512
03:00+17зсз22270 0.0 100413
06:00+16зсз22290 0.0 100412
09:00+21юз32320 0.0 1005521
12:00+24зюз86370 0.0 10061271
15:00+24зюз109380 0.0 10061091
18:00+22з67390 0.0 1006679
21:00+17сз22540 0.0 100920
27 апреля, вт
вт2700:00+16с11440 0.0 101011
03:00+16сз22440 0.0 101011
06:00+15св22470 0.0 101011
09:00+21ю21420 0.0 1012483
12:00+23юз55460 0.0 1012990
15:00+23юз66510 0.0 1012828
18:00+21юз44575 0.0 1013514
21:00+17зсз22766 0.0 101419